GEFSNE_850_meantemp_000.txt.gz
Temperature
13 13 13 13 13 13 13 14 14 14 14 14 14 15 15 15 15 15 16 16 16 16 16 15 15 16 16 16 15 15 14 14 14 13 13 13 12 12
13 13 13 13 13 13 13 13 13 13 13 13 13 13 14 15 15 15 15 15 16 16 15 15 15 15 15 15 15 15 14 14 14 13 12 12 11 13
13 13 13 13 13 13 13 13 13 13 13 14 13 14 14 14 14 14 15 15 16 15 15 15 15 14 14 15 15 14 14 14 13 12 12 12 12 14
12 12 12 12 12 12 12 12 13 13 13 14 14 14 14 14 14 14 14 15 15 15 15 14 14 14 14 14 14 14 13 13 13 13 13 13 13 15
11 11 11 11 11 11 12 12 13 13 13 13 13 13 14 14 14 14 14 14 14 14 14 14 14 14 14 13 13 13 13 13 13 14 14 14 15 15
11 11 11 11 11 11 11 12 12 12 12 12 12 12 13 13 13 13 14 14 14 14 14 14 14 14 14 14 13 13 13 14 14 15 15 15 16 16
11 11 11 11 11 11 11 11 11 11 11 12 12 12 12 12 12 13 13 13 14 14 14 14 14 14 14 14 14 13 13 14 14 14 15 15 15 15
11 11 11 11 11 11 11 11 11 11 11 11 11 12 11 12 12 12 13 13 13 14 14 14 14 14 14 14 14 14 14 14 14 15 15 15 15 15
11 11 11 11 11 11 11 11 11 11 11 11 11 11 11 11 11 12 12 12 12 12 13 13 14 14 14 14 14 14 14 14 14 14 15 15 15 15
11 11 11 11 11 11 11 11 11 12 11 11 11 11 11 11 11 11 11 12 12 12 12 12 13 13 13 14 14 14 14 14 14 15 15 15 14 14
11 11 11 10 10 11 11 11 11 11 11 11 11 11 12 12 12 11 12 12 11 11 11 11 11 12 12 12 13 13 13 14 14 14 15 15 14 13
10 10 10 10 10 10 10 11 11 11 11 12 12 12 12 12 12 12 12 11 11 11 11 11 11 11 11 12 12 12 12 12 13 14 14 14 14 14
10 10 9 9 9 9 10 10 10 10 10 11 11 11 11 11 12 12 12 12 11 11 11 11 11 11 11 11 11 11 12 12 12 13 13 13 13 14
9 9 9 9 9 9 9 9 9 9 10 10 10 11 11 11 11 11 12 11 11 11 11 11 11 11 11 11 11 11 11 11 11 11 12 12 12 13
9 8 8 9 9 9 8 8 9 9 9 9 9 9 10 10 10 11 11 12 12 12 11 11 11 10 10 11 11 11 11 11 11 11 11 11 11 11
8 8 8 8 8 8 8 8 8 8 8 8 8 8 9 9 9 10 10 11 11 11 11 11 11 11 11 11 11 11 11 11 11 11 11 11 10 10
9 8 8 8 8 8 8 7 7 7 7 7 7 7 7 8 8 8 9 9 10 10 10 10 10 10 10 10 11 11 11 11 11 10 10 10 10 10
8 8 8 8 7 7 7 7 7 6 6 6 6 6 6 6 7 7 7 8 8 8 9 9 8 9 10 10 10 10 10 10 11 10 10 9 9 9
8 8 7 7 7 7 7 6 6 6 5 5 5 5 5 5 5 5 6 6 6 6 7 7 7 7 8 8 8 8 9 9 9 9 10 9 9 9
8 7 7 7 7 6 6 6 5 5 5 4 4 4 4 4 4 5 5 5 5 5 5 6 6 6 6 6 6 7 7 8 8 8 9 9 9 9
8 7 7 7 7 6 6 6 5 5 4 4 4 4 3 3 3 3 4 4 4 4 4 5 5 5 5 6 6 6 6 7 7 8 8 8 8 9
8 7 7 7 7 6 6 5 5 4 4 4 3 3 3 3 3 3 3 3 3 3 3 3 4 4 4 5 5 5 6 7 6 6 7 7 7 7
8 7 7 7 7 6 6 5 5 4 4 3 3 3 2 3 3 2 2 2 2 2 2 3 3 3 3 4 4 4 5 6 6 6 6 7 7 8

GEFSNE_850_meantemp_006.txt.gz
Temperature
14 14 14 14 14 14 14 14 15 16 17 16 15 15 14 14 15 15 15 15 15 15 15 16 16 16 16 16 16 16 15 15 15 15 14 14 14 13
14 14 14 14 14 14 14 14 14 15 16 15 14 14 14 14 14 15 14 14 14 15 15 15 16 15 16 16 16 16 15 15 15 14 14 14 14 13
13 13 13 13 13 14 14 14 14 14 14 15 14 14 14 14 14 15 14 14 14 14 14 15 15 15 16 16 16 16 16 15 15 14 14 14 13 13
12 12 12 12 12 12 13 13 13 13 13 14 14 14 14 14 14 14 15 14 14 14 14 14 14 15 15 15 16 16 15 15 14 14 14 14 13 12
12 12 12 12 12 12 12 13 13 13 13 13 13 13 13 14 14 14 14 14 14 14 13 14 14 14 14 15 15 15 15 14 14 14 14 13 12 12
11 11 11 11 11 11 12 12 13 13 13 13 13 13 13 13 13 13 13 14 13 13 13 13 13 13 14 14 15 15 15 14 14 14 13 13 12 12
11 11 11 11 12 12 12 12 12 13 13 14 13 13 13 12 12 12 13 13 13 13 13 12 13 13 13 14 14 14 13 13 13 13 13 12 12 12
11 11 11 11 11 12 12 12 12 12 12 13 13 13 12 12 12 12 12 12 12 12 12 12 12 12 13 13 13 13 13 12 12 12 12 13 13 13
11 11 12 11 11 11 11 11 11 12 12 11 12 12 12 12 12 12 12 12 11 11 11 11 11 11 12 12 12 12 12 12 12 12 13 13 13 13
10 10 10 11 11 11 11 11 11 11 11 11 11 11 12 12 12 12 12 12 12 11 11 11 11 11 11 12 12 12 12 12 13 13 13 13 13 13
10 10 10 10 11 11 10 11 11 11 11 11 11 11 11 12 12 12 12 13 12 11 11 11 10 11 11 11 11 12 12 12 12 12 12 12 12 12
10 10 10 10 10 10 10 10 10 10 10 11 11 11 11 11 11 11 11 12 12 11 11 11 11 11 10 10 10 11 11 11 12 12 12 12 12 12
11 11 10 10 10 10 9 9 10 10 11 11 11 11 11 11 11 11 10 11 11 11 11 11 11 11 11 10 10 10 10 10 11 11 12 12 12 11
10 10 9 9 9 9 9 9 9 10 11 11 11 11 10 10 10 10 10 10 10 10 11 11 11 11 11 11 10 10 10 10 10 11 11 11 11 11
9 9 9 9 9 8 8 9 9 10 10 10 10 10 10 9 10 10 10 10 10 10 10 10 10 10 11 11 11 10 10 10 10 10 10 10 10 11
9 9 9 9 9 8 9 9 9 8 9 9 9 9 9 9 9 9 10 10 10 10 9 9 10 10 10 10 10 10 10 10 10 10 10 10 10 10
9 9 10 10 10 9 9 9 8 8 8 8 8 8 9 9 9 9 8 9 9 9 9 9 9 9 9 10 9 9 10 10 10 10 10 10 10 10
9 10 10 10 10 10 10 9 8 7 7 7 7 7 8 8 8 8 8 8 8 8 8 8 8 9 9 8 8 8 9 9 9 9 10 10 10 9
9 10 10 10 9 9 9 9 8 7 7 7 7 7 7 7 7 7 7 7 8 8 8 8 7 8 8 8 8 8 8 8 8 8 9 9 9 9
10 10 10 9 9 9 9 8 8 7 7 7 6 6 6 7 7 7 7 6 7 7 7 7 6 6 7 7 7 7 7 7 7 7 8 8 8 9
10 10 9 9 9 8 8 8 7 7 6 6 6 6 6 6 6 6 6 6 6 7 7 7 6 5 6 7 7 7 7 6 7 7 7 7 7 8
10 10 9 9 9 8 8 8 8 7 7 7 6 6 6 6 6 6 6 6 6 6 6 6 6 6 6 7 7 7 6 6 6 6 6 6 6 6
10 10 9 9 8 8 8 8 7 7 7 6 6 6 5 5 5 5 6 6 6 6 6 6 6 6 6 6 6 6 6 5 5 5 5 6 6 6

GEFSNE_850_meantemp_012.txt.gz
Temperature
14 14 15 15 15 15 15 15 16 16 16 16 16 16 16 15 15 15 16 16 16 16 16 16 16 16 16 16 16 16 16 16 16 16 16 15 15 15
14 14 15 15 15 15 15 15 15 15 15 15 15 15 15 15 15 15 15 16 16 16 15 15 15 15 15 15 15 16 16 16 16 16 16 15 15 15
14 14 14 14 14 15 15 15 15 15 15 15 15 15 15 15 15 15 15 15 15 15 15 15 14 14 14 15 15 15 15 16 16 16 16 15 15 15
14 14 14 14 14 14 14 14 14 14 14 14 14 14 14 14 14 14 14 14 14 15 14 14 14 14 14 14 14 15 15 15 16 16 16 16 15 14
13 13 13 13 13 13 13 14 14 14 14 14 14 14 13 13 13 13 13 14 14 14 13 13 13 13 13 14 14 14 14 15 15 16 16 15 15 14
12 13 13 13 13 13 13 13 14 14 14 14 14 13 13 13 13 13 13 13 13 13 13 13 13 13 13 13 13 13 14 14 15 15 15 15 15 14
12 13 12 12 13 13 13 13 13 13 13 13 13 12 12 13 12 12 12 12 13 12 12 12 12 12 12 12 13 13 13 14 14 15 15 14 14 14
12 12 12 12 12 12 12 13 13 13 13 12 12 12 12 12 12 12 12 12 12 12 12 11 11 11 12 12 12 12 13 13 13 14 14 14 14 14
12 12 12 12 12 12 12 12 12 12 12 12 12 12 12 12 12 12 12 12 11 11 12 11 11 11 11 11 11 12 12 12 13 13 13 13 13 13
11 11 12 12 12 12 11 11 12 12 12 12 12 12 11 11 12 12 12 12 11 11 11 11 11 11 11 11 11 11 12 12 12 12 12 12 12 12
11 11 11 11 11 11 11 11 12 11 12 12 12 12 12 11 11 11 11 11 11 11 11 11 11 11 11 11 11 11 11 11 11 11 11 11 11 11
11 11 11 11 11 11 11 11 11 12 12 12 12 12 11 11 11 11 11 10 10 10 10 11 11 11 11 11 11 11 11 11 11 11 11 10 10 10
11 11 11 11 11 11 11 11 11 11 12 12 12 11 11 11 10 10 10 10 10 10 10 10 10 10 10 10 10 10 10 10 10 11 11 10 10 10
11 11 11 11 11 10 11 10 11 11 11 11 11 11 11 10 10 10 10 10 10 10 10 10 10 10 10 10 10 10 10 10 10 10 10 10 10 10
11 11 11 11 10 10 10 10 10 10 10 10 10 10 10 10 10 10 10 10 10 10 10 10 10 10 10 10 10 10 10 10 10 10 10 10 10 10
11 11 11 10 10 10 10 10 10 9 9 9 9 9 9 10 9 9 9 9 10 10 9 9 9 9 9 9 9 9 9 9 9 9 9 9 9 10
10 11 10 10 10 10 10 10 10 9 9 9 9 9 9 9 9 9 9 9 9 9 9 9 9 9 9 9 9 9 9 9 9 9 9 9 9 9
10 10 11 11 11 11 11 10 9 9 9 8 8 8 8 8 8 8 8 8 8 9 9 8 8 8 8 8 8 8 8 8 8 8 9 9 9 9
11 11 11 12 11 11 11 10 10 9 8 8 8 8 8 8 8 8 8 8 8 8 8 8 7 7 7 7 8 8 8 8 8 8 8 8 8 8
11 11 11 11 11 11 11 10 9 9 8 8 8 8 8 8 8 8 8 7 7 8 8 8 7 7 7 7 8 7 7 7 7 7 7 7 7 8
11 11 11 11 11 11 10 10 9 9 9 8 8 8 7 7 7 7 7 7 7 7 7 7 7 7 7 7 8 7 7 7 7 7 7 7 7 7
11 12 11 11 11 10 10 10 10 9 9 9 8 8 7 7 7 7 7 7 7 7 6 7 7 7 7 7 7 7 7 7 7 7 6 6 6 6
11 12 11 11 11 10 10 10 10 9 9 9 8 7 7 7 6 6 6 6 6 6 6 6 6 6 6 7 7 7 6 6 7 6 6 6 6 6

GEFSNE_850_meantemp_018.txt.gz
Temperature
14 13 13 13 13 13 14 14 14 14 14 14 14 14 14 15 15 15 16 16 16 16 16 16 16 16 15 15 15 16 16 16 16 16 15 15 16 16
13 13 13 13 13 13 14 14 14 14 14 14 14 14 14 14 15 15 15 15 15 15 15 15 15 15 15 15 15 15 15 15 15 15 15 15 15 15
13 13 13 13 13 13 14 14 14 14 14 13 13 13 14 14 14 14 14 14 15 15 15 14 14 14 14 14 14 14 14 14 14 14 14 15 15 15
12 12 13 13 13 13 14 14 14 14 14 13 13 13 13 13 13 13 14 14 14 14 14 14 13 13 13 13 13 13 13 13 13 13 14 14 15 15
12 12 12 13 13 13 14 14 14 13 13 13 13 13 13 13 13 13 13 13 13 13 13 13 13 12 12 12 12 12 12 13 13 13 13 14 14 15
12 12 12 13 13 13 14 14 13 13 13 13 13 13 12 13 13 13 13 13 12 12 12 12 12 12 12 12 12 12 12 12 12 13 13 13 14 14
12 12 12 13 13 13 13 13 13 13 13 13 12 12 12 12 12 12 12 12 12 12 12 12 12 12 12 12 12 12 12 12 12 12 13 13 13 14
12 12 12 12 12 12 12 12 13 13 12 12 12 11 11 11 11 11 12 12 11 11 12 11 12 11 11 11 11 11 11 12 12 12 12 13 13 14
12 12 12 12 12 12 12 12 12 12 12 11 11 11 11 11 11 11 11 11 11 11 11 11 11 11 11 11 11 11 11 11 11 12 12 12 13 13
11 11 11 11 11 11 12 12 11 11 11 11 11 11 10 10 10 10 10 10 10 10 11 11 11 11 11 10 10 10 10 10 11 11 11 11 12 13
11 11 11 11 11 11 11 11 11 11 11 11 11 10 10 10 10 10 10 10 10 10 10 10 10 11 11 10 10 10 10 10 10 10 10 11 11 12
11 11 11 11 11 11 11 11 11 11 11 11 10 10 10 10 10 10 10 10 9 9 9 9 9 10 10 10 9 9 10 10 10 10 10 10 10 11
11 11 11 10 10 11 11 11 11 11 10 10 10 10 10 10 9 9 9 9 9 9 9 9 9 9 9 9 9 9 9 9 10 9 9 10 10 10
11 11 10 10 10 10 10 10 10 10 10 10 10 9 9 9 9 9 9 9 9 8 9 9 9 8 8 8 8 9 9 9 9 9 9 9 9 9
11 11 10 10 10 10 10 10 10 9 9 9 9 9 9 9 9 9 9 8 8 8 8 8 8 8 8 8 8 8 8 8 8 8 9 9 9 9
11 10 10 10 10 10 10 9 9 9 9 8 8 8 8 8 8 8 8 8 8 8 8 8 8 8 8 7 7 7 7 7 8 8 8 8 9 9
11 10 10 10 10 9 9 9 9 9 8 8 8 8 8 8 8 8 8 8 7 7 7 7 7 7 7 7 7 7 7 7 7 7 8 8 8 8
11 10 10 10 10 9 9 9 9 9 8 8 8 8 8 7 7 7 7 7 7 7 7 7 7 7 7 7 7 7 7 7 7 7 7 7 7 7
10 10 10 10 10 10 9 9 9 9 8 8 8 7 7 7 7 7 7 7 7 7 7 7 7 7 7 7 7 6 6 6 6 6 6 6 7 7
10 11 10 10 10 10 10 9 9 9 8 8 8 7 7 7 7 7 7 7 6 6 6 6 6 6 6 6 6 6 6 6 6 6 6 6 6 6
11 11 11 10 11 10 10 10 9 9 8 8 8 7 7 7 7 6 6 6 6 6 6 6 6 6 6 6 6 6 6 6 6 6 6 6 6 6
11 11 11 10 10 10 10 10 9 9 9 8 8 8 7 7 7 6 6 6 6 6 5 5 5 6 6 5 5 5 5 5 5 5 5 5 5 5
11 11 11 11 10 10 10 10 10 9 9 8 8 8 7 7 7 6 6 6 5 5 5 5 5 5 5 5 5 5 5 5 5 5 5 5 5 5

GEFSNE_850_meantemp_024.txt.gz
Temperature
14 14 14 14 14 14 14 14 14 13 13 13 13 13 13 13 14 14 14 15 15 15 16 16 16 16 16 16 16 16 16 16 15 15 15 15 16 16
13 13 13 13 13 13 13 13 13 13 13 13 13 12 13 13 13 13 14 14 14 14 15 15 15 15 15 15 15 15 15 15 15 15 15 15 15 15
13 13 13 13 13 13 13 13 13 13 13 12 12 12 12 12 13 13 14 14 14 14 14 14 14 14 14 14 14 14 14 14 14 14 14 14 15 15
12 12 12 12 12 12 13 13 13 13 13 12 12 12 12 12 13 13 13 13 13 13 13 13 13 13 13 13 13 14 14 14 14 14 14 14 14 14
12 12 12 12 12 12 12 12 12 12 12 12 12 12 12 12 12 12 13 13 13 12 12 12 12 12 13 13 13 13 13 13 13 13 13 13 14 14
12 12 12 12 12 12 12 12 12 12 12 12 12 12 12 12 12 12 12 12 12 12 12 12 12 12 12 12 12 12 12 12 13 13 13 13 13 13
11 11 11 12 12 12 12 12 12 12 12 12 12 12 11 11 11 11 11 11 11 11 11 11 11 11 11 11 11 12 12 12 12 12 12 12 13 13
11 11 11 11 11 11 12 12 12 13 12 12 12 11 11 11 11 11 11 11 11 11 11 11 11 11 11 11 11 11 11 11 11 12 12 12 12 12
11 11 11 11 11 11 11 11 11 11 12 12 11 11 11 11 11 11 11 11 10 10 11 10 10 10 10 10 10 10 11 11 11 11 11 11 11 11
11 11 11 11 11 11 11 11 11 11 11 11 11 10 10 10 10 10 10 10 10 10 10 10 10 10 9 9 9 10 10 10 10 11 11 11 11 11
11 11 11 11 11 11 11 11 11 10 10 10 10 10 10 10 10 10 10 10 9 9 9 9 9 9 9 9 9 9 9 9 10 10 10 10 10 11
11 11 11 11 11 11 11 11 11 10 10 10 10 10 9 9 9 9 9 9 9 9 9 9 8 9 8 8 8 9 9 9 9 9 9 9 10 10
11 11 11 11 11 11 11 11 11 10 10 10 9 9 9 9 9 9 8 8 8 8 8 8 8 8 8 8 8 8 8 8 9 9 9 9 9 9
10 10 10 10 10 10 10 10 10 10 10 9 9 9 9 8 8 8 8 8 8 8 8 8 7 7 7 7 7 7 8 7 8 8 8 8 8 8
10 10 10 10 10 10 10 10 9 9 9 9 9 8 8 8 8 8 7 7 7 7 7 7 7 7 7 7 7 6 7 7 7 7 7 7 7 8
10 10 10 10 10 10 9 9 9 9 9 8 8 8 8 8 7 7 7 7 7 7 7 7 7 7 7 6 6 6 6 6 6 6 6 6 7 7
10 10 9 9 9 9 9 9 8 8 8 8 8 8 8 7 7 7 7 7 7 7 7 6 6 6 6 6 6 6 6 6 6 6 6 6 6 6
10 10 9 9 9 9 9 9 8 8 8 8 8 7 7 7 7 7 7 7 6 6 6 6 6 6 6 6 6 6 6 6 5 6 6 5 5 5
10 10 9 9 9 9 9 9 8 8 8 8 7 7 7 7 7 7 7 6 6 6 6 6 6 6 6 5 5 5 5 5 5 5 5 5 5 5
10 10 10 9 9 9 9 9 9 8 8 8 8 7 7 7 7 7 6 6 6 6 6 5 5 5 5 5 5 5 5 5 5 5 5 5 5 5
10 10 10 10 10 10 9 9 9 9 8 8 8 7 7 7 7 6 6 6 6 5 5 5 5 5 5 5 5 4 4 4 4 4 4 4 4 4
10 10 10 10 10 10 10 9 9 9 8 8 8 8 7 7 7 7 6 6 6 5 5 5 5 5 5 4 4 4 4 4 4 4 4 4 4 3
10 10 10 10 10 10 10 10 9 9 9 9 8 8 8 7 7 7 6 6 5 5 5 5 5 4 4 4 4 4 4 4 4 4 4 4 3 3

GEFSNE_850_meantemp_030.txt.gz
Temperature
13 13 14 14 14 15 15 15 15 15 15 15 14 14 14 14 14 14 14 14 14 14 14 15 15 15 16 16 16 17 17 17 16 16 16 16 16 16
13 13 14 14 14 14 14 15 15 14 14 14 13 13 13 13 13 13 13 13 13 13 14 14 14 14 15 15 15 15 16 16 16 15 15 15 15 15
13 13 13 13 14 14 14 14 14 14 13 13 13 12 12 12 12 12 12 12 12 13 13 13 13 13 14 14 14 14 14 14 14 14 14 14 14 15
12 12 13 13 13 13 13 14 14 13 13 12 12 12 12 12 12 12 12 12 12 12 12 12 13 13 13 13 13 13 14 14 14 14 14 14 14 14
12 12 12 13 13 13 13 13 13 12 12 12 11 11 11 11 11 11 11 11 11 12 12 12 12 12 12 12 12 13 13 13 13 13 13 13 13 13
12 12 12 12 12 12 12 12 12 12 11 11 11 11 11 11 11 11 11 11 11 11 11 11 11 11 12 12 12 12 12 12 13 13 13 13 13 13
11 11 11 11 11 11 11 11 11 11 11 11 11 11 11 11 11 11 11 10 10 10 11 10 10 11 11 11 12 12 12 12 12 12 12 13 13 13
11 11 11 11 11 11 11 11 11 11 11 11 11 11 11 11 11 11 11 11 11 10 11 10 10 10 10 11 11 11 11 11 12 12 12 12 12 12
11 11 11 10 10 11 11 11 10 10 11 11 11 11 11 11 11 11 11 11 11 10 11 10 10 9 9 10 10 10 10 11 11 11 11 11 12 12
11 11 11 10 10 10 10 10 10 10 10 10 10 10 10 10 11 11 11 11 10 10 11 11 10 9 9 9 9 9 10 10 10 10 11 11 11 11
10 10 10 10 10 10 10 10 10 10 10 11 11 10 10 10 10 11 11 11 11 10 11 11 10 10 10 9 9 9 9 9 9 9 10 10 10 10
10 10 10 10 10 10 10 10 10 10 10 10 10 10 10 10 10 11 12 12 11 10 10 11 11 11 10 9 9 8 8 8 8 8 8 9 9 9
11 10 10 10 10 10 10 10 10 10 10 10 9 9 9 9 10 10 10 11 11 10 10 10 10 11 11 10 9 9 8 8 8 8 8 8 8 8
11 11 10 10 10 10 10 10 10 10 10 10 10 10 10 9 9 9 9 9 9 8 8 9 9 10 10 10 9 9 8 8 8 8 7 7 7 7
11 11 11 10 10 10 10 10 10 10 11 11 10 10 9 9 8 8 8 8 8 8 8 8 9 9 9 9 9 9 8 8 7 7 7 7 7 6
10 10 10 10 10 10 10 10 10 10 11 10 10 9 9 9 9 9 9 9 8 8 7 7 7 8 9 8 9 8 8 8 7 7 7 7 7 6
10 10 10 10 10 9 10 10 10 10 10 10 9 9 9 9 9 9 9 10 10 9 8 8 7 7 8 8 8 8 8 8 7 7 7 7 7 6
10 10 10 11 11 10 10 10 10 10 10 10 10 10 10 9 9 9 10 10 10 9 9 9 9 9 8 7 7 7 7 7 7 7 7 7 7 6
11 11 11 11 11 11 11 11 10 10 10 10 10 10 10 10 10 10 10 10 10 9 9 9 9 9 10 10 7 7 6 6 7 7 7 7 7 6
11 11 11 11 11 11 11 11 10 9 10 10 10 10 10 10 10 10 10 9 10 9 9 9 8 8 8 8 8 7 6 6 6 6 6 7 7 6
12 12 11 11 11 11 11 11 10 10 10 10 10 9 10 10 10 10 9 8 9 9 9 8 7 7 7 8 9 8 7 6 5 5 5 6 6 6
12 12 12 11 11 11 11 11 10 10 9 10 10 10 10 10 10 10 9 9 9 9 9 8 7 7 8 8 9 8 8 7 6 6 5 5 5 5
12 12 12 11 11 11 11 11 10 10 10 10 10 10 10 10 10 10 9 10 9 9 9 9 8 8 8 8 8 8 7 7 7 7 6 5 5 5

GEFSNE_850_meantemp_036.txt.gz
Temperature
14 14 14 14 14 14 14 14 14 14 15 15 16 16 16 16 16 16 16 16 16 15 15 15 15 15 16 16 16 16 17 17 17 17 17 17 17 17
14 14 14 14 14 14 14 14 14 14 14 14 15 15 15 15 15 15 15 14 14 14 14 14 14 14 15 15 15 16 16 16 16 16 17 17 16 16
14 13 13 13 14 14 14 14 14 14 14 14 14 14 14 14 14 14 14 13 13 13 13 13 13 14 14 14 14 14 15 15 15 15 16 16 16 15
13 13 13 13 13 14 14 14 14 14 14 13 13 13 13 13 13 13 13 12 12 12 12 12 13 13 13 13 13 13 14 14 14 14 14 14 15 15
13 13 13 13 13 13 13 13 13 13 13 13 13 13 12 12 12 12 12 12 12 11 11 12 12 12 12 12 12 13 13 13 13 13 13 13 14 14
13 13 12 12 12 12 12 13 13 13 13 12 12 12 12 12 12 11 11 11 11 11 11 11 11 11 11 12 12 12 12 12 12 13 13 13 13 13
12 12 12 12 12 12 12 12 12 12 12 12 12 11 11 11 11 11 11 10 10 10 10 10 11 11 11 11 11 11 12 12 12 12 12 12 12 12
12 12 12 12 11 11 11 12 12 12 12 12 11 11 11 11 11 11 11 10 10 10 10 10 10 10 10 11 11 11 11 11 11 11 12 12 12 12
12 12 11 11 11 11 11 11 11 11 11 12 11 11 11 11 11 11 11 11 11 10 10 10 10 10 10 10 10 10 11 11 11 11 11 11 11 11
12 11 11 11 11 11 11 11 11 11 11 11 11 11 11 11 11 11 11 11 11 10 11 10 10 10 10 10 10 10 10 10 10 10 10 10 10 10
11 11 11 11 11 11 11 11 11 10 11 11 11 11 11 11 11 11 11 11 11 10 11 10 10 10 9 9 9 9 9 9 9 9 9 9 9 9
11 11 11 11 10 11 11 11 11 10 10 10 10 10 10 11 11 11 11 11 11 11 11 11 10 10 9 9 9 9 9 8 8 8 9 9 9 9
10 10 10 10 10 10 10 11 11 10 10 10 10 10 10 10 11 11 12 12 11 11 11 11 11 11 10 9 9 9 9 8 8 8 8 8 8 8
10 10 10 10 10 10 10 10 10 10 10 10 10 10 10 10 11 11 11 12 11 11 11 11 11 11 11 10 9 9 9 8 8 8 8 8 8 8
10 10 10 10 10 10 10 10 10 10 10 10 10 10 10 10 10 11 11 11 11 11 11 11 11 11 11 10 10 9 9 9 8 8 8 8 7 7
9 10 11 10 10 10 10 10 11 11 11 11 10 10 10 10 10 10 10 10 10 10 10 10 10 10 10 10 9 9 9 9 8 8 8 8 7 7
9 10 10 10 10 10 10 11 11 11 11 11 10 10 10 10 10 10 10 10 10 10 9 10 10 10 10 9 9 9 9 8 8 8 8 8 8 7
9 9 10 10 10 10 10 11 11 11 11 11 10 10 10 10 10 10 10 10 10 10 10 10 10 9 9 9 9 9 8 8 8 8 8 8 8 7
9 10 10 10 10 10 11 11 11 11 11 11 11 11 11 11 11 11 11 11 11 10 10 10 10 9 9 9 9 9 8 8 8 8 8 8 8 7
10 11 11 11 11 11 11 11 11 11 11 11 11 11 11 11 11 11 11 11 11 10 10 10 10 10 10 10 9 9 9 8 8 8 8 8 7 7
11 11 12 12 12 12 12 12 11 11 11 11 11 11 11 11 11 11 11 11 11 10 10 10 10 10 10 10 10 9 9 9 9 8 8 8 8 7
11 12 12 12 12 12 12 12 11 11 11 11 11 11 11 11 11 11 11 11 11 11 10 10 10 10 10 10 10 10 10 9 9 9 9 8 8 7
12 12 13 13 13 12 12 12 11 11 11 11 11 11 11 11 11 11 11 11 11 11 10 10 10 10 10 10 10 10 10 10 9 9 9 9 8 8

GEFSNE_850_meantemp_042.txt.gz
Temperature
15 15 15 15 14 14 14 13 13 12 13 14 14 14 14 15 15 16 16 16 16 17 16 16 16 16 16 16 16 16 16 16 17 17 17 17 17 17
14 14 14 15 14 14 14 13 13 13 12 13 13 14 14 14 14 15 15 15 15 16 16 16 16 15 15 15 15 16 16 16 16 16 16 16 16 16
14 14 14 14 14 14 14 14 13 13 13 13 13 13 13 13 13 13 14 14 14 14 14 15 15 15 15 15 15 15 15 15 15 15 16 16 16 16
13 13 13 14 14 14 14 14 14 13 13 13 13 13 13 13 13 12 12 13 13 13 13 13 13 14 14 14 14 14 14 14 14 15 15 15 15 15
12 12 13 13 13 14 14 14 14 13 13 13 13 13 12 12 12 12 12 12 12 12 12 12 12 13 13 13 13 13 13 13 13 14 14 14 14 14
12 12 12 13 13 13 13 13 13 13 13 12 12 12 12 12 12 12 11 11 11 11 11 12 12 12 12 12 12 12 12 12 13 13 13 13 13 13
11 12 12 13 13 13 13 13 13 13 12 12 12 12 12 11 11 11 11 11 10 11 11 11 11 11 11 11 11 12 12 12 12 12 12 12 12 12
11 11 12 12 12 12 13 13 12 12 12 12 12 12 12 11 11 11 11 11 10 10 11 10 10 11 11 11 11 11 11 11 11 11 11 11 11 11
10 11 11 12 12 12 12 12 12 12 12 12 12 12 12 11 11 11 11 11 11 10 10 10 10 10 10 10 10 10 10 11 11 11 11 11 11 11
10 10 11 11 11 12 12 11 11 11 11 12 12 12 12 11 11 11 11 10 10 10 10 10 9 9 9 9 9 9 10 10 10 10 9 10 10 10
9 10 10 11 11 11 11 11 11 11 11 11 11 11 11 11 11 11 10 10 9 9 10 10 9 9 9 8 8 8 9 9 9 9 9 9 9 9
9 9 10 10 11 11 11 11 11 11 11 11 11 11 11 11 11 11 11 10 10 9 9 9 9 9 8 8 8 8 8 8 8 8 8 8 8 8
9 9 9 10 10 10 11 11 11 11 11 11 10 10 10 10 10 10 11 11 11 10 10 10 9 9 9 8 8 7 8 8 8 7 7 7 7 8
8 9 9 9 10 10 10 10 11 10 10 10 10 10 10 10 10 10 10 10 11 11 10 10 10 10 9 8 8 7 7 7 7 7 7 7 7 8
8 8 8 9 9 10 10 10 10 10 10 10 10 10 10 10 10 10 10 10 10 10 10 10 10 10 10 9 8 8 7 7 7 7 7 7 7 7
8 8 8 8 9 9 10 10 10 10 10 10 10 10 10 10 10 10 10 10 10 10 10 10 10 10 9 9 9 8 8 8 7 7 7 7 7 7
7 7 8 8 8 9 9 9 9 10 10 10 10 10 10 10 10 10 10 10 10 10 10 10 10 10 9 9 9 8 8 8 8 8 8 8 8 7
7 7 7 8 8 9 9 9 9 9 10 10 10 10 10 10 10 10 10 10 10 10 10 10 10 9 9 9 9 8 8 8 8 8 8 8 8 8
7 7 7 8 9 9 9 9 10 10 10 10 10 10 10 10 10 10 10 10 10 10 9 9 10 10 9 9 9 8 8 8 8 8 8 8 8 8
7 7 7 8 9 9 10 10 10 10 10 10 10 10 10 10 10 10 10 9 9 9 9 9 10 10 10 9 9 9 9 9 9 9 8 8 8 8
7 7 8 9 9 10 10 10 10 10 10 10 10 10 10 10 10 10 10 10 10 10 10 10 10 10 9 9 9 9 9 9 9 9 9 9 9 8
7 8 8 9 10 10 10 10 10 10 10 10 10 10 10 10 10 10 10 10 10 10 10 10 10 10 10 10 10 10 10 9 9 9 9 9 9 9
8 9 9 9 10 10 10 11 11 10 10 10 10 10 10 10 10 10 10 10 10 10 10 10 10 10 10 10 10 10 10 10 10 10 9 9 9 9

GEFSNE_850_meantemp_048.txt.gz
Temperature
14 14 14 14 14 14 14 13 13 12 12 14 14 14 14 14 14 15 15 16 16 16 17 17 17 17 17 17 16 16 16 16 16 16 16 17 17 17
13 13 14 14 14 14 14 13 13 12 12 13 14 13 13 13 14 14 14 15 15 15 16 16 16 16 16 16 16 16 16 16 16 16 16 16 16 17
12 12 13 13 13 13 13 13 13 13 12 13 13 13 13 13 13 13 13 13 14 14 15 15 15 15 15 15 15 15 15 16 16 16 16 16 16 16
11 12 12 12 12 13 13 13 13 13 12 13 13 13 13 13 13 13 13 13 13 13 13 14 14 15 15 15 15 15 15 15 15 15 15 15 16 16
10 11 11 12 12 12 13 13 13 13 13 12 12 12 12 12 12 12 12 12 12 12 12 13 13 13 14 14 14 14 14 14 14 14 15 15 15 15
10 10 11 11 11 12 12 13 13 13 12 12 12 12 12 12 12 12 12 12 12 12 12 12 12 12 13 13 13 13 13 13 13 14 14 14 14 14
10 10 10 10 11 11 12 12 12 12 12 12 12 12 12 12 12 12 11 11 11 11 11 11 11 11 12 12 12 12 12 12 12 13 13 13 13 13
9 9 10 10 11 11 11 12 12 12 12 12 12 12 12 12 12 11 11 11 10 10 11 10 11 11 11 11 11 11 11 11 11 12 12 12 12 12
9 9 9 10 10 11 11 11 11 11 12 12 12 12 12 12 12 11 11 11 11 10 10 10 10 10 10 10 10 10 10 10 10 11 11 11 11 11
8 9 9 9 10 10 10 11 11 11 11 11 12 12 12 12 12 12 11 11 10 10 10 10 9 9 9 9 9 9 9 10 10 10 10 10 10 10
8 8 9 9 9 10 10 10 10 11 11 11 11 11 11 11 11 11 11 11 10 9 9 9 9 8 8 8 8 8 8 9 9 9 9 9 9 9
8 8 8 9 9 9 9 10 10 10 11 11 11 11 11 11 11 11 11 11 10 9 9 9 8 8 7 7 7 8 8 8 8 8 8 8 8 9
8 8 8 8 9 9 9 10 10 10 10 10 11 11 11 11 11 11 11 11 11 11 10 9 9 9 8 7 7 7 7 7 7 7 7 8 8 8
8 8 8 8 9 9 9 9 9 10 10 10 10 10 10 10 10 10 10 10 11 11 10 10 10 10 9 7 7 7 7 7 7 7 7 7 7 7
8 8 8 8 8 8 9 9 9 9 10 10 10 10 10 10 10 10 10 10 10 10 10 10 10 10 9 9 7 7 7 7 7 7 7 7 7 7
8 8 8 8 8 8 8 9 9 9 10 10 10 10 10 10 10 10 9 9 9 9 9 9 9 9 9 9 8 7 7 7 7 7 7 7 7 7
7 7 7 7 7 8 8 8 9 9 9 10 10 10 10 9 9 9 9 9 9 9 9 9 9 9 9 8 8 8 7 7 7 7 7 7 7 7
7 7 7 7 7 7 8 8 8 9 9 9 9 10 10 9 9 9 9 10 10 9 9 9 9 8 8 8 8 8 8 7 7 7 7 7 7 7
6 6 7 7 7 7 8 8 8 9 9 9 9 9 10 10 9 9 9 9 10 10 9 9 9 9 8 8 8 8 8 8 8 8 8 8 8 8
6 6 6 7 7 7 8 8 8 9 9 9 9 9 9 10 10 10 10 10 10 9 9 9 9 9 9 9 8 8 8 8 8 8 8 8 8 8
6 6 6 7 7 7 8 8 8 9 9 9 9 9 9 9 9 9 9 9 10 9 9 9 9 9 9 9 9 9 9 8 8 8 8 8 8 9
6 6 6 7 7 7 8 8 9 9 9 9 9 9 9 9 9 9 9 9 9 9 9 9 9 9 9 9 9 9 9 9 9 9 9 9 9 9
6 6 7 7 7 8 8 9 9 9 9 9 9 9 9 9 9 9 9 9 9 9 9 9 9 9 9 9 9 9 9 9 9 9 9 9 9 9